Weather in Kulotino

Russia / Novgorod Oblast     58°27′12″N   33°22′37″E
temp.,
°C
wind,
m/s
gust,
m/s
humid.,
%
clouds,
%
prec.,
mm/h
press.,
hPa
HPBL,
m
13 may, thu
thu1300:00+16se61574100 0.0 1019774
03:00+12e3118917 0.0 1017289
06:00+13ese410856 0.0 1017642
09:00+15sse587250 0.1 10171117
12:00+18se46430 0.0 10171618
15:00+20se46375 0.0 10152089
18:00+19se464576 0.0 10132205
21:00+14s4972100 0.1 1013458
14 may, fri
fri1400:00+10sse27935 0.0 1013177
03:00+8se279811 0.0 1013165
06:00+8se28915 0.0 1014272
09:00+14sse47605 0.0 10141010
12:00+18sse5745100 0.0 10131771
15:00+19sse4746100 0.0 10122060
18:00+17se256485 0.0 1011149
21:00+13ese23825 0.1 101155
15 may, sat
sat1500:00+11ese289515 0.0 1010146
03:00+10e279983 0.0 1009184
06:00+12e3995100 0.2 1007315
09:00+14se3895100 2.4 1005616
12:00+16s4881100 0.2 1005836
15:00+20s466091 1.3 10041444
18:00+18sw4779100 2.3 1003446
21:00+13ssw2697100 3.6 1004214
16 may, sun
sun1600:00+13wsw4997100 3.1 1006418
03:00+10wsw269855 3.2 1009178
06:00+10wsw149564 0.0 1011126
09:00+15wnw12705 0.0 1012574
12:00+19wsw134943 0.0 10121643
15:00+21wsw234271 0.0 10122213
18:00+17w246899 0.0 1012149
21:00+13e117621 0.0 101311
17 may, mon
mon1700:00+11se118452 0.0 101411
03:00+10se11865 0.0 101511
06:00+11se248515 0.0 1015120
09:00+18se4768100 0.0 1015598
12:00+21se4556100 0.0 10141233
15:00+23se4646100 0.0 10132051
18:00+21ese485837 0.0 1012965
21:00+18ese4137398 0.0 1011581